TimeEST,TemperatureF,Dew PointF,Humidity,Sea Level PressureIn,VisibilityMPH,Wind Direction,Wind SpeedMPH,Gust SpeedMPH,PrecipitationIn,Events,Conditions,WindDirDegrees,DateUTC
12:53 AM,63.0,57.9,84,29.97,10.0,NW,10.4,-,N/A,,Mostly Cloudy,320,2012-11-21 05:53:00
1:53 AM,61.0,57.9,90,29.95,10.0,NW,10.4,-,N/A,,Scattered Clouds,320,2012-11-21 06:53:00
2:53 AM,60.1,57.0,90,29.94,10.0,NW,9.2,-,N/A,,Partly Cloudy,320,2012-11-21 07:53:00
3:53 AM,60.1,57.0,90,29.94,10.0,NW,8.1,-,N/A,,Partly Cloudy,320,2012-11-21 08:53:00
4:53 AM,60.1,57.0,90,29.94,10.0,NW,9.2,-,N/A,,Partly Cloudy,310,2012-11-21 09:53:00
5:53 AM,59.0,57.0,93,29.95,10.0,NW,9.2,-,N/A,,Partly Cloudy,320,2012-11-21 10:53:00
6:53 AM,60.1,57.0,90,29.97,10.0,NW,8.1,-,N/A,,Partly Cloudy,320,2012-11-21 11:53:00
7:53 AM,63.0,57.9,84,29.98,10.0,NNW,11.5,-,N/A,,Partly Cloudy,330,2012-11-21 12:53:00
8:53 AM,66.0,59.0,78,29.99,10.0,NW,11.5,-,N/A,,Scattered Clouds,320,2012-11-21 13:53:00
9:53 AM,71.1,60.1,68,29.99,10.0,NW,12.7,-,N/A,,Scattered Clouds,320,2012-11-21 14:53:00
10:53 AM,73.9,60.1,62,29.99,10.0,NNW,16.1,-,N/A,,Scattered Clouds,340,2012-11-21 15:53:00
11:53 AM,75.9,60.1,58,29.97,10.0,NNW,16.1,-,N/A,,Scattered Clouds,330,2012-11-21 16:53:00
12:53 PM,77.0,55.9,48,29.94,10.0,NNW,17.3,-,N/A,,Scattered Clouds,330,2012-11-21 17:53:00
1:53 PM,75.9,55.0,48,29.93,10.0,NNW,15.0,-,N/A,,Scattered Clouds,340,2012-11-21 18:53:00
2:53 PM,75.9,54.0,46,29.92,10.0,NNW,13.8,-,N/A,,Scattered Clouds,340,2012-11-21 19:53:00
3:53 PM,72.0,55.9,57,29.93,10.0,North,13.8,-,N/A,,Scattered Clouds,360,2012-11-21 20:53:00
4:53 PM,70.0,52.0,53,29.95,10.0,North,17.3,25.3,N/A,,Scattered Clouds,360,2012-11-21 21:53:00
5:53 PM,66.9,53.1,61,29.96,10.0,North,13.8,20.7,N/A,,Scattered Clouds,360,2012-11-21 22:53:00
6:53 PM,64.9,54.0,68,29.99,10.0,NNW,10.4,-,N/A,,Partly Cloudy,340,2012-11-21 23:53:00
7:53 PM,64.0,55.0,73,30.00,10.0,NNW,11.5,-,N/A,,Partly Cloudy,340,2012-11-22 00:53:00
8:53 PM,63.0,54.0,72,30.01,10.0,NNW,10.4,-,N/A,,Clear,330,2012-11-22 01:53:00
9:53 PM,61.0,54.0,78,30.02,10.0,NW,12.7,-,N/A,,Clear,320,2012-11-22 02:53:00
10:53 PM,60.1,54.0,80,30.02,10.0,NW,12.7,-,N/A,,Clear,320,2012-11-22 03:53:00
11:53 PM,60.1,53.1,78,30.02,10.0,NW,13.8,-,N/A,,Clear,320,2012-11-22 04:53:00